EW8486 Weather Reports


Display with metric or nautical units.
time (UTC)temp
F
wind
direction
speed
MPH
gust
MPH
rain 1hr
in
rain 24hr
in
rain mn
in
humidity
%
barometer
mb
20260507000516 79 180 4.0 11.0 0.00 0.00 0.00 31 1009.7
20260506235017 79 203 6.0 14.0 0.00 0.00 0.00 30 1009.5
20260506233516 80 180 8.0 21.0 0.00 0.00 0.00 30 1009.6
20260506232016 80 180 7.0 16.0 0.00 0.00 0.00 29 1009.5
20260506230516 82 0 3.0 9.0 0.00 0.00 0.00 25 1009.7
20260506225016 81 180 10.0 21.0 0.00 0.00 0.00 24 1009.8
20260506223516 82 203 8.0 18.0 0.00 0.00 0.00 25 1009.5
20260506222017 82 180 9.0 18.0 0.00 0.00 0.00 29 1009.5
20260506220516 81 180 10.0 21.0 0.00 0.00 0.00 29 1009.5
20260506215036 81 203 6.0 15.0 0.00 0.00 0.00 29 1009.7
20260506213536 82 180 8.0 14.0 0.00 0.00 0.00 30 1009.8
20260506212016 82 180 8.0 15.0 0.00 0.00 0.00 31 1009.9
20260506210536 83 203 9.0 16.0 0.00 0.00 0.00 28 1009.8
20260506205016 83 180 8.0 16.0 0.00 0.00 0.00 30 1009.9
20260506203516 78 158 1.0 4.0 0.00 0.00 0.00 37 1009.8
20260506202016 77 158 3.0 5.0 0.00 0.00 0.00 37 1010.0
20260506200516 77 203 1.0 4.0 0.00 0.00 0.00 38 1010.3
20260506195016 75 180 1.0 3.0 0.00 0.00 0.00 40 1010.5
20260506193536 71 158 2.0 4.0 0.00 0.00 0.00 44 1010.7
20260506192016 68 158 1.0 2.0 0.00 0.00 0.00 50 1010.7
20260506190516 69 180 2.0 5.0 0.00 0.00 0.00 48 1011.0
20260506185036 67 158 3.0 4.0 0.00 0.00 0.00 50 1011.1
20260506183516 68 180 1.0 5.0 0.00 0.00 0.00 50 1011.2
20260506182036 67 180 2.0 3.0 0.00 0.00 0.00 46 1011.5
20260506180515 68 158 1.0 2.0 0.00 0.00 0.00 46 1011.6
20260506175036 66 158 2.0 4.0 0.00 0.00 0.00 46 1011.9
20260506173515 65 158 2.0 3.0 0.00 0.00 0.00 45 1012.1
20260506172016 63 158 2.0 5.0 0.00 0.00 0.00 49 1012.4
20260506170515 64 135 2.0 4.0 0.00 0.00 0.00 53 1012.6
20260506165016 63 158 1.0 4.0 0.00 0.00 0.00 52 1012.4
20260506163535 61 158 2.0 5.0 0.00 0.00 0.00 56 1012.4
20260506162016 61 135 2.0 3.0 0.00 0.00 0.00 55 1012.7
20260506160516 61 135 1.0 3.0 0.00 0.00 0.00 57 1012.9
20260506155015 61 135 1.0 3.0 0.00 0.00 0.00 53 1013.1
20260506153536 60 135 2.0 3.0 0.00 0.00 0.00 58 1013.2
20260506152016 60 135 1.0 3.0 0.00 0.00 0.00 54 1013.3
20260506150515 60 90 1.0 3.0 0.00 0.00 0.00 59 1013.6
20260506145016 59 90 1.0 2.0 0.00 0.00 0.00 61 1013.7
20260506143515 58 180 1.0 3.0 0.00 0.00 0.00 63 1013.7
20260506142035 59 203 1.0 2.0 0.00 0.00 0.00 62 1013.9
20260506140515 58 0.0 1.0 0.00 0.00 0.00 58 1013.9
20260506135035 57 0.0 0.0 0.00 0.00 0.00 60 1013.9
20260506133537 56 0.0 2.0 0.00 0.00 0.00 63 1013.6
20260506132017 55 0.0 0.0 0.00 0.00 0.00 63 1013.3
20260506130537 54 0.0 1.0 0.00 0.00 0.00 64 1013.0
20260506125017 53 203 1.0 2.0 0.00 0.00 0.00 63 1013.1
20260506123517 54 0.0 0.0 0.00 0.00 0.00 62 1013.2
20260506122017 54 0.0 0.0 0.00 0.00 0.00 61 1013.1
20260506120517 54 0.0 0.0 0.00 0.00 0.00 61 1013.0
20260506115037 54 0.0 0.0 0.00 0.00 0.00 62 1013.0
20260506113517 54 0.0 0.0 0.00 0.00 0.00 61 1012.9
20260506112017 54 0.0 0.0 0.00 0.00 0.00 61 1012.9
20260506110517 55 0.0 0.0 0.00 0.00 0.00 60 1012.7
20260506105037 56 0.0 0.0 0.00 0.00 0.00 57 1012.4
20260506103537 56 0.0 0.0 0.00 0.00 0.00 58 1012.2
20260506102037 56 0.0 0.0 0.00 0.00 0.00 58 1012.2
20260506100517 56 0.0 0.0 0.00 0.00 0.00 57 1012.2
20260506095037 56 0.0 1.0 0.00 0.00 0.00 57 1012.1
20260506093516 57 0.0 1.0 0.00 0.00 0.00 58 1012.0
20260506092016 58 0.0 1.0 0.00 0.00 0.00 55 1012.0
20260506090557 58 0.0 2.0 0.00 0.00 0.00 53 1012.0
20260506085017 58 0.0 2.0 0.00 0.00 0.00 55 1011.9
20260506083516 59 0.0 1.0 0.00 0.00 0.00 54 1011.9
20260506082017 59 0.0 2.0 0.00 0.00 0.00 50 1011.9
20260506080516 59 0.0 2.0 0.00 0.00 0.00 50 1011.9
20260506073517 60 0.0 1.0 0.00 0.00 0.00 48 1011.8
20260506072017 60 0.0 1.0 0.00 0.00 0.00 47 1011.6
20260506070517 61 0.0 0.0 0.00 0.00 0.00 45 1011.5
20260506062015 62 0.0 1.0 0.00 0.00 0.00 42 1011.1
20260506060515 64 0.0 1.0 0.00 0.00 0.00 42 1011.2
20260506050517 65 0.0 1.0 0.00 0.00 0.00 41 1010.6
20260506045017 65 23 1.0 3.0 0.00 0.00 0.00 40 1010.6
20260506043517 66 0.0 2.0 0.00 0.00 0.00 37 1010.4
20260506042037 66 0.0 1.0 0.00 0.00 0.00 38 1010.3
20260506040517 68 23 1.0 2.0 0.00 0.00 0.00 39 1010.4
20260506033537 70 248 1.0 7.0 0.00 0.00 0.00 33 1009.8
20260506032017 70 0.0 1.0 0.00 0.00 0.00 33 1009.6
20260506030517 70 0.0 0.0 0.00 0.00 0.00 33 1009.6
20260506025017 71 0.0 1.0 0.00 0.00 0.00 32 1009.6
20260506023517 72 0.0 1.0 0.00 0.00 0.00 32 1009.5
20260506022017 75 23 1.0 2.0 0.00 0.00 0.00 29 1009.6
20260506020517 75 23 1.0 3.0 0.00 0.00 0.00 29 1009.7
20260506015017 76 68 1.0 2.0 0.00 0.00 0.00 29 1009.7
20260506013517 77 45 3.0 6.0 0.00 0.00 0.00 27 1009.8
20260506012017 78 23 3.0 5.0 0.00 0.00 0.00 27 1009.7
20260506010536 79 23 2.0 7.0 0.00 0.00 0.00 27 1009.9
20260506005016 80 135 1.0 4.0 0.00 0.00 0.00 27 1010.1
20260506003517 79 23 1.0 5.0 0.00 0.00 0.00 26 1010.1
20260506002017 79 45 2.0 4.0 0.00 0.00 0.00 27 1010.3